EW4883 Weather Reports


Display with metric or nautical units.
time (UTC)temp
F
wind
direction
speed
MPH
gust
MPH
rain 1hr
in
rain 24hr
in
rain mn
in
humidity
%
barometer
mb
20260903070553 82 0 0.0 3.0 0.00 0.00 0.00 57 1015.7
20260903070114 82 0 0.0 3.0 0.00 0.00 0.00 59 1015.8
20260903065553 81 0 0.0 0.0 0.00 0.00 0.00 59 1015.7
20260903065052 82 0 0.0 0.0 0.00 0.00 0.00 60 1015.7
20260903064602 82 0 0.0 0.0 0.00 0.00 0.00 61 1015.8
20260903064052 82 0 0.0 0.0 0.00 0.00 0.00 61 1015.7
20260903063552 82 0 0.0 0.0 0.00 0.00 0.00 58 1015.7
20260903063109 82 0 0.0 0.0 0.00 0.00 0.00 58 1015.7
20260903062552 82 0 0.0 0.0 0.00 0.00 0.00 60 1015.7
20260903062053 82 0 0.0 0.0 0.00 0.00 0.00 60 1015.8
20260903061610 82 0 0.0 0.0 0.00 0.00 0.00 60 1015.9
20260903061056 82 0 0.0 0.0 0.00 0.00 0.00 59 1015.9
20260903060553 82 0 0.0 0.0 0.00 0.00 0.00 59 1015.9
20260903060058 82 0 0.0 3.0 0.00 0.00 0.00 59 1015.9
20260903055552 82 0 0.0 3.0 0.00 0.00 0.00 59 1015.8
20260903055051 83 0 0.0 3.0 0.00 0.00 0.00 59 1015.9
20260903054606 83 0 0.0 4.0 0.00 0.00 0.00 59 1015.9
20260903054053 83 0 1.0 4.0 0.00 0.00 0.00 59 1015.9
20260903053552 83 0 0.0 4.0 0.00 0.00 0.00 57 1015.9
20260903053101 83 279 1.0 4.0 0.00 0.00 0.00 54 1015.9
20260903052557 84 80 2.0 4.0 0.00 0.00 0.00 59 1016.0
20260903052051 83 80 1.0 4.0 0.00 0.00 0.00 53 1015.9
20260903051610 83 0 0.0 3.0 0.00 0.00 0.00 55 1015.9
20260903051052 83 80 1.0 3.0 0.00 0.00 0.00 55 1015.9
20260903050552 84 80 0.0 4.0 0.00 0.00 0.00 59 1015.9
20260903050111 84 80 2.0 4.0 0.00 0.00 0.00 55 1015.8
20260903045554 84 80 0.0 2.0 0.00 0.00 0.00 57 1015.8
20260903045051 84 80 0.0 4.0 0.00 0.00 0.00 58 1015.8
20260903044603 84 80 1.0 7.0 0.00 0.00 0.00 57 1015.8
20260903044052 85 80 1.0 7.0 0.00 0.00 0.00 55 1015.9
20260903043552 85 84 1.0 4.0 0.00 0.00 0.00 52 1015.8
20260903043059 85 284 1.0 4.0 0.00 0.00 0.00 49 1015.7
20260903042552 85 283 1.0 9.0 0.00 0.00 0.00 50 1015.7
20260903042055 85 278 3.0 9.0 0.00 0.00 0.00 51 1015.7
20260903041616 85 220 2.0 6.0 0.00 0.00 0.00 52 1015.7
20260903041052 85 0 1.0 7.0 0.00 0.00 0.00 55 1015.7
20260903040556 85 109 3.0 7.0 0.00 0.00 0.00 55 1015.5
20260903040106 85 125 2.0 8.0 0.00 0.00 0.00 53 1015.5
20260903035556 85 130 1.0 8.0 0.00 0.00 0.00 53 1015.4
20260903035054 85 85 2.0 6.0 0.00 0.00 0.00 52 1015.3
20260903034559 85 116 2.0 4.0 0.00 0.00 0.00 53 1015.1
20260903034055 86 117 2.0 4.0 0.00 0.00 0.00 51 1015.1
20260903033553 86 223 1.0 4.0 0.00 0.00 0.00 48 1015.1
20260903033057 86 222 0.0 4.0 0.00 0.00 0.00 48 1015.0
20260903032553 86 222 0.0 4.0 0.00 0.00 0.00 48 1014.9
20260903032052 87 0 2.0 5.0 0.00 0.00 0.00 48 1014.9
20260903031611 87 221 1.0 7.0 0.00 0.00 0.00 48 1014.8
20260903031055 87 216 2.0 7.0 0.00 0.00 0.00 47 1014.7
20260903030552 87 239 2.0 7.0 0.00 0.00 0.00 47 1014.7
20260903025551 87 200 2.0 7.0 0.00 0.00 0.00 47 1014.5
20260903025053 87 218 2.0 6.0 0.00 0.00 0.00 47 1014.4
20260903024600 87 213 2.0 5.0 0.00 0.00 0.00 45 1014.4
20260903024056 87 213 2.0 5.0 0.00 0.00 0.00 45 1014.4
20260903023552 87 200 2.0 7.0 0.00 0.00 0.00 46 1014.4
20260903023054 87 228 2.0 9.0 0.00 0.00 0.00 44 1014.4
20260903022552 87 213 4.0 9.0 0.00 0.00 0.00 44 1014.3
20260903022052 87 229 4.0 9.0 0.00 0.00 0.00 44 1014.2
20260903021604 87 223 2.0 9.0 0.00 0.00 0.00 43 1014.3
20260903021052 87 198 1.0 6.0 0.00 0.00 0.00 42 1014.3
20260903020551 87 171 1.0 5.0 0.00 0.00 0.00 41 1014.3
20260903020105 87 0 0.0 6.0 0.00 0.00 0.00 41 1014.3
20260903015552 87 168 2.0 6.0 0.00 0.00 0.00 41 1014.3
20260903015054 88 0 2.0 5.0 0.00 0.00 0.00 41 1014.4
20260903014625 88 190 1.0 5.0 0.00 0.00 0.00 41 1014.4
20260903014051 88 187 1.0 5.0 0.00 0.00 0.00 40 1014.5
20260903013554 88 164 1.0 5.0 0.00 0.00 0.00 39 1014.5
20260903013106 89 173 1.0 4.0 0.00 0.00 0.00 38 1014.3
20260903012553 89 0 0.0 7.0 0.00 0.00 0.00 38 1014.3
20260903012053 89 191 0.0 7.0 0.00 0.00 0.00 38 1014.3
20260903011620 89 190 1.0 5.0 0.00 0.00 0.00 38 1014.3
20260903011052 89 211 0.0 7.0 0.00 0.00 0.00 40 1014.2
20260903010551 89 0 1.0 7.0 0.00 0.00 0.00 41 1014.2
20260903010113 90 208 1.0 5.0 0.00 0.00 0.00 41 1014.1
20260903005551 90 178 0.0 4.0 0.00 0.00 0.00 41 1014.1
20260903005051 90 177 0.0 6.0 0.00 0.00 0.00 41 1014.1
20260903004607 91 230 1.0 6.0 0.00 0.00 0.00 41 1014.2
20260903004055 91 198 0.0 4.0 0.00 0.00 0.00 40 1014.3
20260903003552 92 199 0.0 3.0 0.00 0.00 0.00 40 1014.2
20260903003113 92 0 0.0 6.0 0.00 0.00 0.00 40 1014.2
20260903002552 92 194 1.0 6.0 0.00 0.00 0.00 40 1014.3
20260903002055 92 130 3.0 9.0 0.00 0.00 0.00 40 1014.2
20260903001606 91 0 1.0 9.0 0.00 0.00 0.00 41 1014.2
20260903001053 91 229 2.0 8.0 0.00 0.00 0.00 41 1014.2
20260903000553 90 221 1.0 9.0 0.00 0.00 0.00 42 1014.3
20260902235552 90 189 2.0 9.0 0.00 0.00 0.00 41 1014.4
20260902235051 91 207 2.0 9.0 0.00 0.00 0.00 41 1014.4
20260902234609 91 206 4.0 8.0 0.00 0.00 0.00 41 1014.3
20260902234056 92 115 0.0 8.0 0.00 0.00 0.00 39 1014.4
20260902233553 92 231 1.0 9.0 0.00 0.00 0.00 40 1014.3
20260902233054 92 236 2.0 9.0 0.00 0.00 0.00 39 1014.3
20260902232551 91 246 3.0 8.0 0.00 0.00 0.00 38 1014.3
20260902232054 91 263 2.0 9.0 0.00 0.00 0.00 37 1014.3
20260902231600 91 224 4.0 9.0 0.00 0.00 0.00 39 1014.4
20260902231052 91 237 4.0 8.0 0.00 0.00 0.00 39 1014.4
20260902230551 91 231 3.0 8.0 0.00 0.00 0.00 40 1014.4
20260902230104 90 223 3.0 5.0 0.00 0.00 0.00 40 1014.5
20260902225551 90 236 2.0 8.0 0.00 0.00 0.00 40 1014.6
20260902225054 90 235 2.0 10.0 0.00 0.00 0.00 40 1014.7
20260902224618 90 227 5.0 10.0 0.00 0.00 0.00 40 1014.9
20260902224051 91 257 4.0 10.0 0.00 0.00 0.00 40 1014.9
20260902223551 91 252 3.0 9.0 0.00 0.00 0.00 40 1014.9
20260902223056 91 251 3.0 9.0 0.00 0.00 0.00 40 1014.9
20260902222551 91 296 2.0 9.0 0.00 0.00 0.00 39 1014.9
20260902222051 91 252 2.0 10.0 0.00 0.00 0.00 40 1014.8
20260902221605 91 296 3.0 10.0 0.00 0.00 0.00 40 1015.0
20260902221051 91 298 4.0 11.0 0.00 0.00 0.00 40 1015.0
20260902220552 91 296 2.0 11.0 0.00 0.00 0.00 42 1014.9
20260902220116 91 249 0.0 7.0 0.00 0.00 0.00 41 1015.1
20260902215549 91 342 2.0 8.0 0.00 0.00 0.00 41 1015.2
20260902215050 91 275 3.0 9.0 0.00 0.00 0.00 40 1015.2
20260902214604 92 269 3.0 9.0 0.00 0.00 0.00 39 1015.4
20260902214051 92 270 4.0 9.0 0.00 0.00 0.00 38 1015.4
20260902213552 92 0 1.0 10.0 0.00 0.00 0.00 39 1015.4
20260902213104 92 248 5.0 10.0 0.00 0.00 0.00 38 1015.3
20260902212549 93 351 3.0 8.0 0.00 0.00 0.00 39 1015.2
20260902212050 93 30 1.0 9.0 0.00 0.00 0.00 39 1015.3
20260902211605 94 347 3.0 12.0 0.00 0.00 0.00 36 1015.4
20260902211055 93 285 2.0 12.0 0.00 0.00 0.00 37 1015.6
20260902210550 93 313 5.0 12.0 0.00 0.00 0.00 38 1015.7
20260902210108 93 317 2.0 11.0 0.00 0.00 0.00 39 1015.7
20260902205552 93 265 3.0 11.0 0.00 0.00 0.00 40 1015.8
20260902205049 92 305 4.0 11.0 0.00 0.00 0.00 40 1015.9
20260902204603 92 298 6.0 11.0 0.00 0.00 0.00 43 1015.9
20260902204050 91 276 2.0 12.0 0.00 0.00 0.00 43 1015.8
20260902203549 91 263 6.0 12.0 0.00 0.00 0.00 42 1016.0
20260902203110 91 0 4.0 12.0 0.00 0.00 0.00 43 1016.0
20260902202549 91 50 3.0 11.0 0.00 0.00 0.00 42 1016.0
20260902202049 91 296 5.0 12.0 0.00 0.00 0.00 42 1016.0
20260902201605 92 244 6.0 12.0 0.00 0.00 0.00 42 1016.0
20260902201049 91 303 3.0 12.0 0.00 0.00 0.00 44 1016.1
20260902200552 90 302 3.0 13.0 0.00 0.00 0.00 45 1016.2
20260902200105 90 263 5.0 13.0 0.00 0.00 0.00 47 1016.4
20260902195550 90 247 6.0 13.0 0.00 0.00 0.00 45 1016.4
20260902195049 90 242 4.0 11.0 0.00 0.00 0.00 45 1016.4
20260902194604 91 280 5.0 11.0 0.00 0.00 0.00 45 1016.5
20260902194053 91 275 4.0 9.0 0.00 0.00 0.00 44 1016.6
20260902193554 91 329 4.0 10.0 0.00 0.00 0.00 46 1016.8
20260902193108 91 298 3.0 10.0 0.00 0.00 0.00 46 1016.8
20260902192555 91 253 4.0 10.0 0.00 0.00 0.00 46 1016.9
20260902192053 90 338 3.0 8.0 0.00 0.00 0.00 47 1017.1
20260902191606 89 290 3.0 10.0 0.00 0.00 0.00 48 1017.2
20260902191052 90 273 0.0 10.0 0.00 0.00 0.00 47 1017.3
20260902190552 90 300 5.0 10.0 0.00 0.00 0.00 46 1017.3
20260902190111 91 234 5.0 10.0 0.00 0.00 0.00 46 1017.2
20260902185555 91 236 3.0 9.0 0.00 0.00 0.00 46 1017.3
20260902185054 91 273 2.0 8.0 0.00 0.00 0.00 45 1017.4
20260902184600 90 316 3.0 8.0 0.00 0.00 0.00 48 1017.6
20260902184053 90 5 1.0 11.0 0.00 0.00 0.00 47 1017.6
20260902183553 90 26 3.0 11.0 0.00 0.00 0.00 47 1017.7
20260902183111 90 360 2.0 11.0 0.00 0.00 0.00 46 1017.8
20260902182552 90 270 2.0 10.0 0.00 0.00 0.00 47 1017.8
20260902182053 90 142 1.0 10.0 0.00 0.00 0.00 47 1017.8
20260902181606 90 271 4.0 11.0 0.00 0.00 0.00 48 1017.9
20260902181053 90 325 2.0 11.0 0.00 0.00 0.00 47 1018.0
20260902180552 90 5 0.0 6.0 0.00 0.00 0.00 48 1018.0
20260902175553 89 69 2.0 8.0 0.00 0.00 0.00 49 1018.1
20260902175053 89 0 2.0 8.0 0.00 0.00 0.00 48 1018.1
20260902174604 89 5 1.0 6.0 0.00 0.00 0.00 49 1018.1
20260902174053 89 36 0.0 6.0 0.00 0.00 0.00 49 1018.1
20260902173554 89 333 2.0 7.0 0.00 0.00 0.00 49 1018.2
20260902173107 89 0 0.0 7.0 0.00 0.00 0.00 49 1018.1
20260902172552 89 317 2.0 6.0 0.00 0.00 0.00 49 1018.2
20260902172052 89 351 0.0 5.0 0.00 0.00 0.00 50 1018.2
20260902171606 88 282 2.0 6.0 0.00 0.00 0.00 50 1018.3
20260902171057 88 255 2.0 6.0 0.00 0.00 0.00 51 1018.3
20260902170553 88 105 1.0 4.0 0.00 0.00 0.00 51 1018.1
20260902170104 87 0 2.0 6.0 0.00 0.00 0.00 50 1018.1
20260902165553 87 99 0.0 6.0 0.00 0.00 0.00 53 1018.1
20260902165053 87 101 2.0 6.0 0.00 0.00 0.00 52 1018.2
20260902164612 87 116 2.0 6.0 0.00 0.00 0.00 53 1018.2
20260902164118 86 116 2.0 6.0 0.00 0.00 0.00 54 1018.3
20260902163554 86 84 3.0 6.0 0.00 0.00 0.00 54 1018.3
20260902163104 85 68 2.0 5.0 0.00 0.00 0.00 55 1018.3
20260902162553 85 69 2.0 6.0 0.00 0.00 0.00 56 1018.3
20260902162056 85 69 2.0 6.0 0.00 0.00 0.00 57 1018.3
20260902161605 85 68 3.0 6.0 0.00 0.00 0.00 59 1018.3
20260902161052 84 64 3.0 6.0 0.00 0.00 0.00 59 1018.3
20260902160554 84 57 2.0 5.0 0.00 0.00 0.00 59 1018.2
20260902160124 84 57 1.0 6.0 0.00 0.00 0.00 61 1018.2
20260902155553 83 57 2.0 6.0 0.00 0.00 0.00 61 1018.1
20260902155054 83 52 3.0 6.0 0.00 0.00 0.00 62 1018.1
20260902154604 83 55 3.0 7.0 0.00 0.00 0.00 62 1018.2
20260902154053 82 103 3.0 7.0 0.00 0.00 0.00 63 1018.2
20260902153556 82 65 2.0 5.0 0.00 0.00 0.00 64 1018.1
20260902153100 82 57 3.0 5.0 0.00 0.00 0.00 64 1018.2
20260902152553 81 57 3.0 6.0 0.00 0.00 0.00 64 1018.2
20260902152053 81 62 3.0 6.0 0.00 0.00 0.00 64 1018.2
20260902151611 81 60 3.0 6.0 0.00 0.00 0.00 64 1018.2
20260902151053 82 47 3.0 6.0 0.00 0.00 0.00 65 1018.2
20260902150554 82 80 2.0 4.0 0.00 0.00 0.00 64 1018.1
20260902150100 82 80 2.0 4.0 0.00 0.00 0.00 64 1018.1
20260902145552 82 84 2.0 4.0 0.00 0.00 0.00 64 1018.0
20260902145052 83 0 1.0 4.0 0.00 0.00 0.00 62 1018.0
20260902144559 82 128 1.0 3.0 0.00 0.00 0.00 62 1018.1
20260902144054 82 0 0.0 0.0 0.00 0.00 0.00 64 1018.1
20260902143554 81 0 0.0 1.0 0.00 0.00 0.00 66 1018.1
20260902143109 80 0 0.0 3.0 0.00 0.00 0.00 67 1018.1
20260902142555 80 0 0.0 3.0 0.00 0.00 0.00 69 1018.2
20260902142057 79 0 0.0 3.0 0.00 0.00 0.00 70 1018.1
20260902141601 79 0 0.0 3.0 0.00 0.00 0.00 73 1018.1
20260902141056 78 128 0.0 4.0 0.00 0.00 0.00 74 1018.0
20260902140553 77 0 1.0 4.0 0.00 0.00 0.00 75 1017.9
20260902140059 77 159 1.0 4.0 0.00 0.00 0.00 76 1017.8
20260902135555 76 0 0.0 1.0 0.00 0.00 0.00 77 1017.8
20260902135054 76 0 0.0 0.0 0.00 0.00 0.00 80 1017.8
20260902134611 76 0 0.0 4.0 0.00 0.00 0.00 81 1017.7
20260902134053 75 0 0.0 4.0 0.00 0.00 0.00 81 1017.6
20260902133552 75 161 0.0 2.0 0.00 0.00 0.00 81 1017.6
20260902133109 74 0 0.0 2.0 0.00 0.00 0.00 81 1017.4
20260902132553 74 0 0.0 4.0 0.00 0.00 0.00 81 1017.5
20260902132053 73 0 0.0 4.0 0.00 0.00 0.00 82 1017.6
20260902131607 73 113 1.0 4.0 0.00 0.00 0.00 83 1017.5
20260902131055 73 0 0.0 0.0 0.00 0.00 0.00 84 1017.4
20260902130550 73 0 0.0 0.0 0.00 0.00 0.00 84 1017.3
20260902130104 73 0 0.0 0.0 0.00 0.00 0.00 84 1017.3
20260902125557 73 0 0.0 0.0 0.00 0.00 0.00 84 1017.2
20260902125055 73 0 0.0 0.0 0.00 0.00 0.00 83 1017.3
20260902124606 74 0 0.0 0.0 0.00 0.00 0.00 83 1017.1
20260902124054 74 0 0.0 0.0 0.00 0.00 0.00 82 1017.1
20260902123552 74 0 0.0 0.0 0.00 0.00 0.00 82 1017.0
20260902123103 74 0 0.0 0.0 0.00 0.00 0.00 81 1017.1
20260902122554 75 0 0.0 0.0 0.00 0.00 0.00 81 1017.1
20260902122053 75 0 0.0 0.0 0.00 0.00 0.00 80 1017.1
20260902121602 75 0 0.0 0.0 0.00 0.00 0.00 79 1016.9
20260902121053 75 0 0.0 0.0 0.00 0.00 0.00 79 1017.0
20260902120553 75 0 0.0 0.0 0.00 0.00 0.00 79 1017.0
20260902120107 75 0 0.0 0.0 0.00 0.00 0.00 79 1017.0
20260902115552 75 0 0.0 0.0 0.00 0.00 0.00 79 1016.9
20260902115053 75 0 0.0 0.0 0.00 0.00 0.00 79 1016.9
20260902114604 75 0 0.0 0.0 0.00 0.00 0.00 78 1017.0
20260902114052 76 0 0.0 0.0 0.00 0.00 0.00 77 1016.9
20260902113554 76 0 0.0 0.0 0.00 0.00 0.00 75 1016.8
20260902113103 76 0 0.0 2.0 0.00 0.00 0.00 75 1016.8
20260902112553 76 0 0.0 2.0 0.00 0.00 0.00 75 1016.9
20260902112057 76 0 0.0 4.0 0.00 0.00 0.00 75 1016.9
20260902111557 76 0 0.0 5.0 0.00 0.00 0.00 75 1016.8
20260902111053 76 168 0.0 5.0 0.00 0.00 0.00 75 1016.9
20260902110553 76 0 0.0 0.0 0.00 0.00 0.00 76 1016.8
20260902110106 76 0 0.0 0.0 0.00 0.00 0.00 76 1016.8
20260902105555 76 0 0.0 0.0 0.00 0.00 0.00 77 1016.9
20260902105054 76 0 0.0 0.0 0.00 0.00 0.00 77 1016.9
20260902104623 75 0 0.0 0.0 0.00 0.00 0.00 77 1016.9
20260902104053 75 0 0.0 0.0 0.00 0.00 0.00 77 1016.9
20260902103553 76 0 0.0 0.0 0.00 0.00 0.00 77 1016.9
20260902103100 76 0 0.0 0.0 0.00 0.00 0.00 76 1016.9
20260902102553 76 0 0.0 0.0 0.00 0.00 0.00 76 1017.0
20260902102154 75 0 0.0 0.0 0.00 0.00 0.00 77 1017.1
20260902101555 75 0 0.0 0.0 0.00 0.00 0.00 77 1017.2
20260902101049 75 0 0.0 0.0 0.00 0.00 0.00 76 1017.1
20260902100556 75 0 0.0 0.0 0.00 0.00 0.00 76 1017.1
20260902100130 76 0 0.0 0.0 0.00 0.00 0.00 75 1017.0
20260902095556 76 0 0.0 0.0 0.00 0.00 0.00 76 1016.9
20260902095220 76 0 0.0 0.0 0.00 0.00 0.00 75 1016.9
20260902094607 76 0 0.0 0.0 0.00 0.00 0.00 74 1016.9
20260902094053 76 0 0.0 0.0 0.00 0.00 0.00 73 1016.9
20260902093554 77 0 0.0 0.0 0.00 0.00 0.00 72 1017.0
20260902093117 77 0 0.0 0.0 0.00 0.00 0.00 72 1017.0
20260902092551 77 0 0.0 0.0 0.00 0.00 0.00 72 1016.9
20260902092053 78 0 0.0 0.0 0.00 0.00 0.00 70 1016.9
20260902091612 78 0 0.0 0.0 0.00 0.00 0.00 68 1016.9
20260902091053 78 0 0.0 3.0 0.00 0.00 0.00 68 1017.0
20260902090553 79 0 0.0 3.0 0.00 0.00 0.00 66 1016.9
20260902090106 80 0 0.0 3.0 0.00 0.00 0.00 65 1016.7
20260902085557 81 264 0.0 7.0 0.00 0.00 0.00 63 1016.8
20260902085053 81 264 3.0 7.0 0.00 0.00 0.00 62 1016.8
20260902084607 80 270 2.0 6.0 0.00 0.00 0.00 63 1016.8
20260902084053 80 285 1.0 6.0 0.00 0.00 0.00 63 1016.7
20260902083552 80 289 3.0 6.0 0.00 0.00 0.00 62 1016.8
20260902083111 80 231 1.0 4.0 0.00 0.00 0.00 62 1016.7
20260902082553 81 231 1.0 4.0 0.00 0.00 0.00 62 1016.7
20260902082052 81 231 1.0 7.0 0.00 0.00 0.00 61 1016.7
20260902081620 80 230 1.0 7.0 0.00 0.00 0.00 62 1016.7
20260902081052 80 0 2.0 7.0 0.00 0.00 0.00 63 1016.7
20260902080554 78 230 3.0 6.0 0.00 0.00 0.00 66 1016.7
20260902080108 77 282 1.0 4.0 0.00 0.00 0.00 69 1016.7
20260902075552 76 282 2.0 4.0 0.00 0.00 0.00 71 1016.7
20260902075052 76 282 1.0 3.0 0.00 0.00 0.00 73 1016.6
20260902074559 76 282 1.0 3.0 0.00 0.00 0.00 73 1016.7
20260902074053 76 282 1.0 3.0 0.00 0.00 0.00 74 1016.6
20260902073552 76 0 0.0 0.0 0.00 0.00 0.00 74 1016.5
20260902073057 76 0 0.0 0.0 0.00 0.00 0.00 73 1016.6
20260902072551 76 0 0.0 0.0 0.00 0.00 0.00 72 1016.6
20260902072055 77 0 0.0 0.0 0.00 0.00 0.00 72 1016.6
20260902071617 77 0 0.0 0.0 0.00 0.00 0.00 73 1016.6
20260902071055 77 0 0.0 0.0 0.00 0.00 0.00 72 1016.6